Location: Voyageurs National Park
(48.5020°N, 92.9292°W)
Time: 09:54:16
(UTC-06:00)

PCSat - Visible Passes

Search period start: 28 February 2015 00:00
Search period end: 10 March 2015 01:00
Orbit: 786 x 795 km, 67.1° (Epoch: 26 February)

Date Brightness Start Highest point End Pass type
(mag) Time Alt. Az. Time Alt. Az. Time Alt. Az.
28 Feb 12.3 02:43:47 11° N 02:44:49 11° N 02:46:26 10° NNE visible
28 Feb 11.7 04:26:03 10° NNW 04:30:20 23° NNE 04:34:40 10° E visible
28 Feb 9.6 06:09:04 10° NW 06:14:32 89° NE 06:19:59 10° SSE visible
01 Mar 12.4 02:13:47 11° N 02:13:47 11° N 02:14:59 10° NNE visible
01 Mar 11.9 03:55:29 10° NNW 03:59:23 20° NNE 04:03:21 10° ENE visible
01 Mar 9.9 05:38:23 10° NNW 05:43:50 70° NE 05:49:15 10° SE visible
02 Mar 12.1 03:24:54 10° NNW 03:28:24 17° NNE 03:31:58 10° ENE visible
02 Mar 10.3 05:07:44 10° NNW 05:13:05 54° NE 05:18:24 10° SE visible
03 Mar 12.2 02:54:32 11° N 02:57:22 15° NNE 03:00:30 10° ENE visible
03 Mar 10.7 04:37:06 10° NNW 04:42:17 43° NE 04:47:28 10° ESE visible
04 Mar 12.3 02:24:35 12° N 02:26:20 13° NNE 02:29:00 10° NE visible
04 Mar 11.1 04:06:30 10° NNW 04:11:27 35° NE 04:16:26 10° ESE visible
04 Mar 9.8 05:49:51 10° NW 05:55:06 51° WSW 06:00:19 10° S visible
04 Mar 11.4 18:56:03 10° ESE 18:56:30 11° ESE 18:56:30 11° ESE visible
04 Mar 10.7 20:34:42 10° SSW 20:37:25 30° SSW 20:37:25 30° SSW visible
05 Mar 12.4 01:54:42 12° N 01:55:16 12° NNE 01:57:27 10° NE visible
05 Mar 11.4 03:35:54 10° NNW 03:40:35 29° NE 03:45:18 10° E visible
05 Mar 9.5 05:19:05 10° NW 05:24:29 67° WSW 05:29:51 10° SSE visible
05 Mar 9.6 20:04:13 10° SSW 20:09:27 53° ESE 20:10:16 48° E visible
05 Mar 11.4 21:48:11 10° WSW 21:51:12 27° W 21:51:12 27° W visible
05 Mar13.123:44:11NE23:44:11NE23:32:08WNWvisible
06 Mar 12.5 01:24:55 11° NNE 01:24:55 11° NNE 01:25:55 10° NNE visible
06 Mar 11.6 03:05:40 11° NNW 03:09:40 24° NE 03:14:05 10° E visible
06 Mar 9.5 04:48:21 10° NW 04:53:49 87° WSW 04:59:15 10° SSE visible
06 Mar 10.0 19:33:52 10° S 19:38:51 40° ESE 19:43:12 14° NE visible
06 Mar 10.7 21:17:09 10° WSW 21:22:18 42° NW 21:24:07 32° N visible
06 Mar 12.4 23:04:10 10° NW 23:05:03 12° NW 23:05:03 12° NW visible
07 Mar 11.9 02:36:06 15° N 02:38:44 20° NNE 02:42:47 10° E visible
07 Mar 9.7 04:17:40 10° NNW 04:23:07 74° NE 04:28:33 10° SE visible
07 Mar 10.8 06:02:04 10° WNW 06:06:02 20° WSW 06:09:51 10° SSW visible
07 Mar 10.3 19:03:40 10° S 19:08:17 30° ESE 19:13:01 10° NE visible
07 Mar 10.3 20:46:12 10° SW 20:51:30 53° NW 20:56:51 10° NNE visible
07 Mar 12.1 22:32:42 10° WNW 22:36:13 17° NNW 22:37:44 15° N visible
08 Mar12.800:26:12NE00:26:12NE00:18:38NNWvisible
08 Mar 12.0 03:07:01 17° NNE 03:07:45 18° NNE 03:11:24 10° ENE visible
08 Mar 10.1 04:47:49 14° NNW 04:52:23 58° NE 04:57:44 10° SE visible
08 Mar 10.4 06:30:58 10° NW 06:35:31 27° WSW 06:39:57 10° SSW visible
08 Mar 10.7 19:33:40 10° SSE 19:37:44 23° ESE 19:41:58 10° ENE visible
08 Mar 9.9 21:15:20 10° SW 21:20:44 67° NW 21:26:12 10° NNE visible
08 Mar 12.0 23:01:18 10° WNW 23:05:14 19° NNW 23:09:05 10° NNE visible
09 Mar 12.6 00:49:40 10° NNW 00:50:34 11° N 00:50:34 11° N visible
09 Mar 12.3 02:38:43 13° NE 02:38:43 13° NE 02:39:58 10° ENE visible
09 Mar 10.5 04:19:36 32° N 04:21:35 46° NE 04:26:49 10° ESE visible
09 Mar 10.1 06:00:29 12° NW 06:04:57 36° WSW 06:09:49 10° S visible
09 Mar 9.6 20:44:35 10° SW 20:50:01 86° WNW 20:55:31 10° NE visible
09 Mar 11.8 22:29:58 10° W 22:34:16 23° NNW 22:38:30 10° NNE visible
10 Mar 12.5 00:18:14 10° NNW 00:19:48 11° N 00:21:19 10° N visible
